User: anonymous   Login
Location: Newark
(49.5647°N, 8.2922°E)
Time: 23:34:50
(UTC+00:00)
Language:

Transit 2A Rocket - Orbit

View from above orbital plane
View from above orbital plane
View from above satellite
View from above satellite

Ground track
Ground track

The orbit data is extracted from the following two-line orbital elements,

1    47U 60007C   20054.57351846 -.00000016 +00000-0 +21554-4 0  9993
2    47 066.6652 102.1977 0224689 025.5481 335.6524 14.42072906118112
Epoch (UTC): 23 February 2020 13:45:51
Eccentricity: 0.0224689
inclination: 66.6652°
perigee height: 591 km
apogee height: 912 km
right ascension of ascending node: 102.1977°
argument of perigee: 25.5481°
revolutions per day: 14.42072906
mean anomaly at epoch: 335.6524°
orbit number at epoch: 11811

The dashed part of the orbit path shows where the satellite is in the earth's shadow,  

DLR